Hourly Weather Lubango

Today, 30 September, Wednesday

Time Temperature Precipitation Wind Pressure Humidity
00:00 +14°C° 0 mm 1 mps 608 mmHg 58%
01:00 +14°C° 0 mm 1 mps 607 mmHg 57%
02:00 +14°C° 0 mm 1 mps 607 mmHg 55%
03:00 +14°C° 0 mm 1 mps 607 mmHg 52%
04:00 +13°C° 0 mm 1 mps 606 mmHg 50%
05:00 +15°C° 0 mm 1 mps 607 mmHg 45%
06:00 +16°C° 0 mm 1 mps 608 mmHg 40%
07:00 +19°C° 0 mm 1 mps 610 mmHg 34%
08:00 +22°C° 0 mm 1 mps 611 mmHg 28%
09:00 +25°C° 0 mm 2 mps 612 mmHg 23%
10:00 +29°C° 0 mm 2 mps 613 mmHg 17%
11:00 +30°C° 0 mm 2 mps 612 mmHg 16%
12:00 +31°C° 0 mm 2 mps 612 mmHg 16%
13:00 +32°C° 0 mm 2 mps 612 mmHg 16%
14:00 +30°C° 0 mm 3 mps 611 mmHg 19%
15:00 +29°C° 0 mm 4 mps 610 mmHg 22%
16:00 +28°C° 0 mm 5 mps 609 mmHg 25%
17:00 +23°C° 0 mm 4 mps 608 mmHg 40%
18:00 +19°C° 0 mm 3 mps 607 mmHg 54%
19:00 +16°C° 0 mm 2 mps 606 mmHg 69%
20:00 +15°C° 0 mm 1 mps 606 mmHg 69%
21:00 +14°C° 0 mm 1 mps 607 mmHg 69%
22:00 +14°C° 0 mm 1 mps 607 mmHg 69%
23:00 +14°C° 0 mm 1 mps 607 mmHg 63%

Tomorrow, 1 October, Thursday

Time Temperature Precipitation Wind Pressure Humidity
00:00 +14°C° 0 mm 1 mps 607 mmHg 57%
01:00 +14°C° 0 mm 1 mps 606 mmHg 52%
02:00 +14°C° 0 mm 1 mps 606 mmHg 53%
03:00 +13°C° 0 mm 1 mps 606 mmHg 55%
04:00 +13°C° 0 mm 1 mps 605 mmHg 57%
05:00 +14°C° 0 mm 1 mps 606 mmHg 52%
06:00 +16°C° 0 mm 1 mps 607 mmHg 47%
07:00 +18°C° 0 mm 1 mps 609 mmHg 42%
08:00 +22°C° 0 mm 1 mps 610 mmHg 35%
09:00 +25°C° 0 mm 1 mps 611 mmHg 27%
10:00 +29°C° 0 mm 2 mps 612 mmHg 20%
11:00 +30°C° 0 mm 2 mps 612 mmHg 19%
12:00 +30°C° 0 mm 3 mps 611 mmHg 19%
13:00 +31°C° 0 mm 3 mps 610 mmHg 18%
14:00 +30°C° 0 mm 4 mps 610 mmHg 22%
15:00 +29°C° 0 mm 4 mps 609 mmHg 25%
16:00 +28°C° 0 mm 5 mps 608 mmHg 29%
17:00 +23°C° 0 mm 4 mps 607 mmHg 41%
18:00 +20°C° 0 mm 3 mps 607 mmHg 54%
19:00 +16°C° 0 mm 2 mps 606 mmHg 66%
20:00 +15°C° 0 mm 2 mps 606 mmHg 70%
21:00 +14°C° 0 mm 2 mps 607 mmHg 74%
22:00 +13°C° 0 mm 1 mps 607 mmHg 79%
23:00 +13°C° 0 mm 1 mps 607 mmHg 78%

Day after tomorrow, 2 October, Friday

Time Temperature Precipitation Wind Pressure Humidity
00:00 +13°C° 0 mm 1 mps 606 mmHg 77%
01:00 +13°C° 0 mm 1 mps 606 mmHg 76%
02:00 +13°C° 0 mm 1 mps 606 mmHg 72%
03:00 +12°C° 0 mm 1 mps 606 mmHg 69%
04:00 +12°C° 0 mm 1 mps 606 mmHg 65%
05:00 +14°C° 0 mm 1 mps 607 mmHg 58%
06:00 +15°C° 0 mm 1 mps 608 mmHg 50%
07:00 +16°C° 0 mm 0 mps 609 mmHg 42%
08:00 +21°C° 0 mm 1 mps 610 mmHg 35%
09:00 +25°C° 0 mm 1 mps 611 mmHg 29%
10:00 +28°C° 0 mm 2 mps 612 mmHg 22%
11:00 +29°C° 0 mm 2 mps 612 mmHg 21%
12:00 +30°C° 0 mm 3 mps 611 mmHg 20%
13:00 +31°C° 0 mm 3 mps 611 mmHg 19%
14:00 +30°C° 0 mm 4 mps 610 mmHg 21%
15:00 +29°C° 0 mm 4 mps 609 mmHg 23%
16:00 +27°C° 0 mm 4 mps 608 mmHg 25%
17:00 +23°C° 0 mm 4 mps 608 mmHg 36%
18:00 +20°C° 0 mm 3 mps 607 mmHg 46%
19:00 +16°C° 0 mm 2 mps 607 mmHg 56%
20:00 +15°C° 0 mm 1 mps 607 mmHg 59%
21:00 +15°C° 0 mm 1 mps 607 mmHg 61%
22:00 +14°C° 0 mm 1 mps 607 mmHg 63%
23:00 +14°C° 0 mm 1 mps 607 mmHg 60%

3 October, Saturday

Time Temperature Precipitation Wind Pressure Humidity
00:00 +14°C° 0 mm 1 mps 607 mmHg 57%
01:00 +14°C° 0 mm 1 mps 607 mmHg 54%
02:00 +14°C° 0 mm 1 mps 607 mmHg 47%
03:00 +14°C° 0 mm 1 mps 607 mmHg 42%
04:00 +14°C° 0 mm 1 mps 607 mmHg 37%
05:00 +16°C° 0 mm 1 mps 608 mmHg 32%
06:00 +17°C° 0 mm 0 mps 609 mmHg 26%
07:00 +18°C° 0 mm 0 mps 610 mmHg 21%
08:00 +23°C° 0 mm 1 mps 611 mmHg 18%
09:00 +26°C° 0 mm 1 mps 612 mmHg 15%
10:00 +29°C° 0 mm 2 mps 613 mmHg 12%
11:00 +30°C° 0 mm 2 mps 612 mmHg 12%
12:00 +31°C° 0 mm 2 mps 612 mmHg 12%
13:00 +32°C° 0 mm 2 mps 612 mmHg 11%
14:00 +31°C° 0 mm 3 mps 611 mmHg 12%
15:00 +30°C° 0 mm 4 mps 610 mmHg 13%
16:00 +29°C° 0 mm 5 mps 610 mmHg 14%
17:00 +25°C° 0 mm 4 mps 609 mmHg 24%
18:00 +21°C° 0 mm 3 mps 608 mmHg 34%
19:00 +17°C° 0 mm 2 mps 607 mmHg 45%
20:00 +16°C° 0 mm 2 mps 607 mmHg 44%
21:00 +16°C° 0 mm 1 mps 608 mmHg 43%
22:00 +16°C° 0 mm 1 mps 608 mmHg 41%
23:00 +16°C° 0 mm 1 mps 608 mmHg 40%

4 October, Sunday

Time Temperature Precipitation Wind Pressure Humidity
00:00 +15°C° 0 mm 1 mps 607 mmHg 39%
01:00 +15°C° 0 mm 1 mps 607 mmHg 38%
02:00 +15°C° 0 mm 1 mps 607 mmHg 34%
03:00 +15°C° 0 mm 1 mps 607 mmHg 29%
04:00 +15°C° 0 mm 1 mps 607 mmHg 25%
05:00 +18°C° 0 mm 1 mps 608 mmHg 23%
06:00 +19°C° 0 mm 1 mps 609 mmHg 21%
07:00 +21°C° 0 mm 1 mps 610 mmHg 19%
08:00 +24°C° 0 mm 1 mps 611 mmHg 16%
09:00 +27°C° 0 mm 2 mps 612 mmHg 13%
10:00 +30°C° 0 mm 3 mps 613 mmHg 10%
11:00 +31°C° 0 mm 3 mps 613 mmHg 10%
12:00 +33°C° 0 mm 3 mps 612 mmHg 10%
13:00 +34°C° 0 mm 3 mps 612 mmHg 9%
14:00 +33°C° 0 mm 3 mps 611 mmHg 11%
15:00 +32°C° 0 mm 4 mps 610 mmHg 13%
16:00 +30°C° 0 mm 4 mps 610 mmHg 15%
17:00 +26°C° 0 mm 3 mps 609 mmHg 26%
18:00 +21°C° 0 mm 2 mps 608 mmHg 37%
19:00 +16°C° 0 mm 1 mps 607 mmHg 48%
20:00 +16°C° 0 mm 1 mps 607 mmHg 45%
21:00 +16°C° 0 mm 1 mps 608 mmHg 43%
22:00 +16°C° 0 mm 1 mps 608 mmHg 41%
23:00 +16°C° 0 mm 1 mps 608 mmHg 38%

5 October, Monday

Time Temperature Precipitation Wind Pressure Humidity
00:00 +16°C° 0 mm 1 mps 608 mmHg 35%
01:00 +15°C° 0 mm 1 mps 608 mmHg 33%
02:00 +15°C° 0 mm 1 mps 607 mmHg 32%
03:00 +15°C° 0 mm 1 mps 607 mmHg 31%
04:00 +15°C° 0 mm 1 mps 607 mmHg 30%
05:00 +18°C° 0 mm 1 mps 608 mmHg 27%
06:00 +20°C° 0 mm 1 mps 609 mmHg 23%
07:00 +22°C° 0 mm 1 mps 610 mmHg 20%
08:00 +25°C° 0 mm 1 mps 611 mmHg 17%
09:00 +28°C° 0 mm 2 mps 612 mmHg 14%
10:00 +31°C° 0 mm 3 mps 613 mmHg 12%
11:00 +33°C° 0 mm 3 mps 613 mmHg 11%
12:00 +34°C° 0 mm 3 mps 612 mmHg 10%
13:00 +35°C° 0 mm 3 mps 612 mmHg 10%
14:00 +34°C° 0 mm 4 mps 611 mmHg 11%
15:00 +33°C° 0 mm 4 mps 611 mmHg 12%
16:00 +32°C° 0 mm 4 mps 610 mmHg 13%
17:00 +27°C° 0 mm 4 mps 609 mmHg 24%
18:00 +21°C° 0 mm 3 mps 608 mmHg 36%
19:00 +17°C° 0 mm 2 mps 607 mmHg 47%
20:00 +16°C° 0 mm 1 mps 607 mmHg 48%
21:00 +16°C° 0 mm 1 mps 607 mmHg 48%
22:00 +15°C° 0 mm 1 mps 608 mmHg 48%
23:00 +15°C° 0 mm 1 mps 608 mmHg 46%
Show more

We Need Your Consent

Meteoprog and our Service Providers may store and access personal data such as cookies, device identifiers or other similar technologies on your device and process such data to personalise content and ads, as well as provide social media features and to analyse the traffic.

  • Store and/or access information on your device

    Cookies, device identifiers or other information can be stored or accessed on your device for the purposes indicated above.

  • Personalised ads and content, ad and content measurement, audience insights, and products development

    Ads and content can be personalised based on a profile. More data can be added to better personalise ads and content. Ad and content performance can be measured. Insights about the audience who saw the ads and content can be derived. Such data can be used to develop or improve user’s experience, systems and software.

By clicking ‘I Agree’ you will allow the use of indicated cookies, device identifiers, web beacons or other similar technologies. Your settings can be changed in the browser on your device.

For certain purposes, legitimate interests may be relied on, rather than consent. You can read more about this in our Privacy and Cookie Policy.